Weather in Domozhakov

Russia / Republic of Khakassia     53°26′38″N   91°01′53″E
temp.,
°C
wind,
m/s
gust,
m/s
humid.,
%
clouds,
%
prec.,
mm/h
press.,
hPa
HPBL,
m
18 april, sun
sun1801:00−3ese008084 0.1 102411
04:00−4ssw1185100 0.0 102334
07:00−3s1280100 0.0 1022135
10:00+2sw3561100 0.0 1019730
13:00+7wsw71032100 0.0 10172117
16:00+6w5941100 0.0 10161836
19:00+5w4753100 0.0 1016215
22:00+3s3467100 0.0 101561
19 april, mon
mon1901:00+3s4773100 0.0 1011138
04:00+2ssw347452 0.0 100564
07:00+5ssw8206311 0.0 1002576
10:00+7sw9208296 0.6 10031624
13:00+4wsw131840100 0.8 10111738
16:00+3wsw91037100 0.0 10161612
19:00+1w7943100 0.0 10181044
22:00−1wnw2556100 0.0 1020340
20 april, tue
tue2001:00−3ene4352100 0.0 1021986
04:00−4e3256100 0.0 1021903
07:00−4ese3356100 0.1 1022885
10:00−2ese2247100 0.1 10221339
13:000e2234100 0.1 10211994
16:00+1ene333190 0.0 10201985
19:00+1ne323378 0.0 10211683
22:00−1nne2346100 0.0 1022182
21 april, wed
wed2101:00−2n5554100 0.0 10241004
04:00−3nne3456100 0.0 1024966
07:00−3ne335086 0.1 1025877
10:00−1ene224087 0.0 10251488
13:00+1ene3334100 0.0 10231947
16:00+2ene2330100 0.0 10221900
19:00+2nne5639100 0.0 1022746
22:00−1nne5949100 0.0 1024345
22 april, thu
thu2201:00−1nne4858100 0.0 1024348
04:00−1n4754100 0.0 1025409
07:00−1n4747100 0.0 1027617
10:00+1n664171 0.0 10281227
13:00+4nne673884 0.0 10281884
16:00+4n8842100 0.0 10301777
19:00+3n8955100 0.0 10331130
22:000n7126340 0.0 1036599